Mobridge, SD

5:10 AM CST on February 23, 2018 (GMT -0600)
Mobridge Municipal

Weather History for KMBG - March, 2014

Change the Weather History Date:

Thursday, March 13, 2014

  Actual Average Record
Temperature  
Mean Temperature 46 °F 30 °F  
Max Temperature 63 °F 41 °F 79 °F (1911)
Min Temperature 30 °F 20 °F -14 °F (1951)
Degree Days  
Heating Degree Days 18 35  
Month to date heating degree days 483  
Since 1 July heating degree days 6458  
Cooling Degree Days 0 0  
Month to date cooling degree days 0  
Year to date cooling degree days 0  
Moisture  
Dew Point 28 °F    
Average Humidity 59    
Maximum Humidity 85    
Minimum Humidity 28    
Precipitation  
Precipitation 0.00 in 0.03 in 0.77 in (1944)
Month to date precipitation 0.31  
Year to date precipitation 1.04  
Snow  
Snow 0.00 in - - ()
Month to date snowfall  
Since 1 July snowfall  
Snow Depth -    
Sea Level Pressure  
Sea Level Pressure 29.75 in    
Wind  
Wind Speed 7 mph (WNW)    
Max Wind Speed 18 mph    
Max Gust Speed 28 mph    
Visibility 10 miles    
Events      
T = Trace of Precipitation, MM = Missing Value Source: NWS Daily Summary

Daily Weather History Graph

Daily Weather History Graph

Search for Another Location

Airport or City:

Trip Planner

Search our weather history database for the weather conditions in past years. The results will help you decide how hot, cold, wet, or windy it might be!

Date:

Astronomy

Mar. 13, 2014 Rise Set
Actual Time 7:57 AM CDT 7:44 PM CDT
Civil Twilight 7:28 AM CDT 8:14 PM CDT
Nautical Twilight 6:54 AM CDT 8:49 PM CDT
Astronomical Twilight 6:19 AM CDT 9:24 PM CDT
Moon 5:06 PM CDT (3/13) 6:12 AM CDT (3/13)
Length of Visible Light 12h 46m
Length of Day
11h 47m
Waxing Gibbous, 91% of the Moon is Illuminated
Mar 13
Waxing Gibbous
Mar 16
Full
Mar 23
Last Quarter
Mar 30
New
Apr 7
First Quarter

Hourly Weather History & Observations

Time (CDT) Temp. Windchill Dew Point Humidity Pressure Visibility Wind Dir Wind Speed Gust Speed Precip Events Conditions
12:52 AM 36.0 °F 30.3 °F 28.0 °F 73% 29.93 in 10.0 mi NW 6.9 mph - N/A   Clear
1:52 AM 35.1 °F 32.2 °F 28.0 °F 76% 29.92 in 10.0 mi NW 3.5 mph - N/A   Clear
2:52 AM 35.1 °F - 28.0 °F 76% 29.91 in 10.0 mi Calm Calm - N/A   Clear
3:52 AM 30.9 °F - 26.1 °F 82% 29.89 in 10.0 mi Calm Calm - N/A   Clear
4:52 AM 32.0 °F 27.5 °F 26.1 °F 79% 29.87 in 10.0 mi West 4.6 mph - N/A   Clear
5:52 AM 33.1 °F 26.9 °F 26.1 °F 75% 29.85 in 10.0 mi West 6.9 mph - N/A   Clear
6:52 AM 33.1 °F - 26.1 °F 75% 29.83 in 10.0 mi Calm Calm - N/A   Clear
7:52 AM 30.0 °F 25.2 °F 26.1 °F 85% 29.83 in 10.0 mi SE 4.6 mph - N/A   Clear
8:52 AM 32.0 °F 25.6 °F 28.0 °F 85% 29.81 in 10.0 mi SSE 6.9 mph - N/A   Clear
9:52 AM 37.9 °F 32.7 °F 30.0 °F 73% 29.78 in 10.0 mi SSE 6.9 mph - N/A   Clear
10:52 AM 45.0 °F 40.6 °F 28.9 °F 53% 29.75 in 10.0 mi SW 8.1 mph - N/A   Clear
11:52 AM 53.1 °F - 30.0 °F 41% 29.71 in 10.0 mi WSW 12.7 mph - N/A   Clear
12:52 PM 55.9 °F - 30.9 °F 39% 29.68 in 10.0 mi West 18.4 mph - N/A   Clear
1:52 PM 59.0 °F - 33.1 °F 38% 29.65 in 10.0 mi West 11.5 mph - N/A   Clear
2:52 PM 62.1 °F - 32.0 °F 32% 29.60 in 10.0 mi West 13.8 mph - N/A   Clear
3:52 PM 63.0 °F - 28.9 °F 28% 29.59 in 10.0 mi WNW 16.1 mph 23.0 mph N/A   Clear
4:52 PM 61.0 °F - 28.0 °F 29% 29.59 in 10.0 mi WNW 17.3 mph 27.6 mph N/A   Clear
5:52 PM 59.0 °F - 28.0 °F 31% 29.60 in 10.0 mi NW 18.4 mph - N/A   Clear
6:52 PM 53.1 °F - 28.9 °F 40% 29.62 in 10.0 mi NW 15.0 mph - N/A   Clear
7:52 PM 46.9 °F - 28.9 °F 50% 29.65 in 10.0 mi West 8.1 mph - N/A   Clear
8:52 PM 48.0 °F - 28.9 °F 48% 29.68 in 10.0 mi NNW 12.7 mph - N/A   Overcast
9:52 PM 41.0 °F 37.1 °F 28.9 °F 62% 29.70 in 10.0 mi North 5.8 mph - N/A   Scattered Clouds
10:52 PM 36.0 °F 33.3 °F 27.0 °F 70% 29.72 in 10.0 mi NW 3.5 mph - N/A   Partly Cloudy
11:52 PM 30.9 °F 25.2 °F 25.0 °F 79% 29.74 in 10.0 mi NW 5.8 mph - N/A   Partly Cloudy